Hurricane Symbol View the latest observations near Atlantic Tropical Depression Alberto.

Station 42020 (LLNR 1405) - CORPUS CHRISTI, TX - 60NM SSE of Corpus Christi, TX Image indicating link to RSS feed of recent meteorological observations for station 42020


Conditions at 42020 as of
(11:00 am CDT)
1600 GMT on 06/20/2024:
     

Click on the graph icon in the table below to see a time series plot of the last five days of that observation.

5-day plot - Wind Direction Wind Direction (WDIR): E ( 90 deg true )
5-day plot - Wind Speed Wind Speed (WSPD): 19.4 kts
5-day plot - Wind Gust Wind Gust (GST): 25.3 kts
5-day plot - Atmospheric Pressure Atmospheric Pressure (PRES):29.91 in
5-day plot - Pressure Tendency Pressure Tendency (PTDY):+0.06 in ( Rising )
5-day plot - Air Temperature Air Temperature (ATMP): 84.4 °F
5-day plot - Water Temperature Water Temperature (WTMP): 85.3 °F
5-day plot - Dew Point Dew Point (DEWP): 80.2 °F
5-day plot - Heat Index Heat Index (HEAT): 98.2 °F
5-day plot - Wind Speed at 10 Meters Wind Speed at 10 meters (WSPD10M): 21.4 kts
5-day plot - Wind Speed at 20 Meters Wind Speed at 20 meters (WSPD20M): 23.3 kts
5-day plot -  Wind Speed, Wind Gust and Atmospheric Pressure Combined plot of Wind Speed, Gust, and Air Pressure
Supplemental Measurements
Lowest 1-minute Pressure
Time (CDT)Pressure
10:52 am29.91 in
Highest 1-minute Wind Speed
Time (CDT)5-day plot - 1-Minute Wind Speed WSPD 5-day plot - 1-Minute Wind Direction WDIR
10:57 am 21.4 kts E ( 90 deg true )
Previous observations
TIME
(CDT)
5-day plot - Wind Direction
WDIR
 
5-day plot - Wind Speed
WSPD
kts
5-day plot - Wind Gust
GST
kts
5-day plot - Wave Height
WVHT
ft
5-day plot - Dominant Wave Period
DPD
sec
5-day plot - Average Wave Period
APD
sec
5-day plot - Mean Wave Direction
MWD
 
5-day plot - Atmospheric Pressure
PRES
in
5-day plot - Pressure Tendency
PTDY
in
5-day plot - Air Temperature
ATMP
°F
5-day plot - Water Temperature
WTMP
°F
5-day plot - Dew Point
DEWP
°F
5-day plot - Salinity
SAL
psu
5-day plot - Visibility
VIS
nmi
5-day plot - Tide (above MLLW)
TIDE
ft
2024-06-20 10:50 am E 21.4 27.2 15.1 118.1ENE29.91- 84.2 85.3 79.9---
2024-06-20 10:40 am E 21.4 29.1 15.1-8.1ENE29.90- 84.2 85.3 79.9---
2024-06-20 10:30 am E 21.4 27.2----29.90- 84.0 85.1 80.2---
2024-06-20 10:20 am E 19.4 25.3 14.8 118.1ENE29.90- 83.1- 79.9---
2024-06-20 10:10 am E 23.3 35.0 14.8-8.1ENE29.90- 84.2 85.3 79.9---
2024-06-20 10:00 am E 21.4 27.2----29.88+0.06 84.7 85.3 80.4---
2024-06-20 09:50 am E 23.3 29.1 13.5-7.4ENE29.89-- 85.3----
2024-06-20 09:40 am E 21.4 27.2 13.5-7.4ENE29.88- 84.4 85.3 80.6---
2024-06-20 09:30 am E 21.4 27.2----29.88- 84.2 85.3 80.6---
2024-06-20 09:20 am E 21.4 27.2 15.1-7.9ENE29.87-- 85.3----
2024-06-20 09:10 am E 21.4 25.3 15.1-7.9ENE29.87- 84.4 85.3 80.6---
2024-06-20 09:00 am E 21.4 27.2----29.87+0.06 84.2 85.3 80.2---
2024-06-20 08:50 am E 21.4 27.2 14.4 117.9 E29.86- 83.8- 80.1---
2024-06-20 08:40 am E 21.4 27.2----29.86- 83.5 85.1 79.9---
2024-06-20 08:30 am E 21.4 29.1----29.85- 83.8 85.1 80.2---
2024-06-20 08:20 am E 23.3 31.1 14.4 117.8ENE29.85- 83.7- 80.2---
2024-06-20 08:10 am E 21.4 27.2 14.4-7.8ENE29.84- 83.1 85.1 80.2---
2024-06-20 08:00 am E 23.3 27.2----29.84+0.06 82.8 85.3 80.2---
2024-06-20 07:50 am E 21.4 27.2 16.1-8.2 E29.83-- 85.3----
2024-06-20 07:40 am E 23.3 29.1----29.83- 82.8 85.3 79.9---
2024-06-20 07:30 am E 23.3 29.1 16.1-8.2 E29.83- 82.6 85.3 79.9---
2024-06-20 07:20 amESE 25.3 31.1 15.7 118.2 E29.83- 82.4- 79.7---
2024-06-20 07:10 am E 27.2 33.0 15.7-8.2 E29.82- 82.2 85.3 79.5---
2024-06-20 07:00 am E 21.4 31.1----29.81+0.05 83.1 85.1 79.9---
2024-06-20 06:50 am E 19.4 25.3 16.7 118.3ENE29.81- 83.1 85.3 79.9---
2024-06-20 06:40 am E 21.4 27.2----29.81- 82.8 85.1 79.5---
2024-06-20 06:30 am E 23.3 29.1----29.80- 82.4 84.9 79.2---
2024-06-20 06:20 am E 25.3 31.1 16.7-7.8 E29.80-- 84.6----
2024-06-20 06:10 am E 23.3 29.1 16.7-7.8 E29.80- 82.0 84.6 78.6---
2024-06-20 06:00 amESE 25.3 31.1----29.80+0.03 81.1 84.6 78.6---
2024-06-20 05:50 am E 27.2 38.9 16.4 108.0 E29.80- 84.2- 79.2---
2024-06-20 05:40 am E 25.3 31.1 16.4-8.0 E29.78- 84.7 84.4 79.5---
2024-06-20 05:30 am E 25.3 33.0----29.78- 84.7 84.4 79.5---
2024-06-20 05:20 am E 27.2 33.0 16.4 118.0 E29.78- 84.7- 79.7---
2024-06-20 05:10 am E 27.2 33.0 16.4-8.0 E29.78- 84.6 84.4 79.5---
2024-06-20 05:00 am E 27.2 35.0----29.78-0.01 84.6 84.4 79.5---
2024-06-20 04:50 am E 25.3 33.0 16.7 118.0ENE29.78- 84.6 84.4 79.7---
2024-06-20 04:40 am E 25.3 33.0----29.78- 84.6 84.4 79.5---
2024-06-20 04:30 am E 25.3 31.1----29.78- 84.7 84.2 79.9---
2024-06-20 04:20 am E 27.2 33.0 15.1-7.6 E29.77-- 84.2----
2024-06-20 04:10 am E 27.2 31.1 15.1-7.6 E29.77- 84.7 84.4 79.2---
2024-06-20 04:00 am E 27.2 35.0----29.77-0.02 84.7 84.4 79.5---
2024-06-20 03:50 am E 25.3 31.1 17.7-7.9 E29.77-- 84.4----
2024-06-20 03:40 am E 29.1 36.9----29.77- 84.7 84.4 79.7---
2024-06-20 03:30 am E 27.2 33.0 17.7-7.9 E29.77- 85.1 84.6 80.1---
2024-06-20 03:20 am E 27.2 36.9 18.7-8.0 E29.77-- 84.6----
2024-06-20 03:10 am E 27.2 35.0----29.76- 85.1 84.6 79.9---
2024-06-20 03:00 am E 27.2 36.9----29.77-0.01 85.1 84.6 79.9---
2024-06-20 02:50 am E 27.2 33.0 16.4 117.7 E29.77- 84.9 84.6 80.1---
2024-06-20 02:40 am E 27.2 35.0 16.4-7.7 E29.77- 84.6 84.6 80.2---
2024-06-20 02:30 am E 23.3 31.1----29.78- 84.2 84.6 80.8---
2024-06-20 02:20 am E 23.3 31.1 17.7 117.7 E29.77- 84.0 84.6 80.6---
2024-06-20 02:10 am E 25.3 31.1 17.7-7.7 E29.77- 83.8 84.6 79.9---
2024-06-20 02:00 am E 27.2 35.0----29.78+0.01 84.0 84.6 79.7---
2024-06-20 01:50 am E 27.2 35.0 16.1 107.5 E29.78- 84.2- 80.2---
2024-06-20 01:40 am E 27.2 36.9----29.78- 84.4 84.6 79.9---
2024-06-20 01:30 am E 27.2 33.0 16.1-7.5 E29.78- 84.6 84.6 80.1---
2024-06-20 01:20 am E 27.2 33.0 17.4-7.6 E29.78-- 84.6----
2024-06-20 01:10 am E 25.3 35.0 17.4-7.6 E29.78- 84.6 84.6 80.2---
2024-06-20 01:00 am E 25.3 29.1----29.78+0.04 84.9 84.6 80.8---
2024-06-20 12:50 am E 25.3 31.1 15.4 117.3 E29.80- 84.9- 80.6---
2024-06-20 12:40 am E 25.3 31.1 15.4-7.3 E29.77- 84.7 84.7 80.6---
2024-06-20 12:30 am E 25.3 31.1----29.77- 84.7 84.7 80.6---
2024-06-20 12:20 am E 25.3 35.0 15.7-7.3 E29.78- 83.8 84.9 80.6---
2024-06-20 12:10 am--- 15.7 97.3 E--------
2024-06-20 12:00 am E 23.3 31.1----29.78+0.05 83.7 84.9 80.6---
2024-06-19 11:50 pm E 25.3 33.0 15.4 97.1 E29.77- 83.1 85.1 80.1---
2024-06-19 11:40 pm E 23.3 29.1 15.4-7.1 E29.78- 81.9 85.1 79.0---
2024-06-19 11:30 pm E 27.2 38.9----29.78- 84.2 85.1 80.6---
2024-06-19 11:20 pm E 27.2 33.0----29.77- 84.6 85.1 80.8---
2024-06-19 11:10 pm E 27.2 33.0----29.77- 84.4 85.1 80.8---
2024-06-19 11:00 pm E 27.2 33.0----29.76+0.07 84.4 85.1 80.6---
2024-06-19 10:50 pm E 27.2 33.0 14.1-7.0 E29.77-- 85.1----
2024-06-19 10:40 pm E 25.3 33.0 14.1-7.0 E29.77- 84.2 85.1 81.0---
2024-06-19 10:30 pm E 25.3 31.1----29.76- 84.6 85.1 80.8---
2024-06-19 10:20 pm E 25.3 33.0 14.4 116.9 E29.75- 84.6- 81.1---
2024-06-19 10:10 pm E 27.2 33.0----29.75- 84.2 85.1 81.0---
2024-06-19 10:00 pm E 27.2 33.0 14.4-6.9 E29.74+0.04 85.1 85.1 81.0---
2024-06-19 09:50 pm E 27.2 35.0 13.8-6.8 E29.73-- 85.1----
2024-06-19 09:40 pm E 29.1 35.0----29.72- 85.3 85.1 80.6---
2024-06-19 09:30 pm E 29.1 36.9 13.8-6.8 E29.72- 84.9 85.1 80.8---
2024-06-19 09:20 pm E 29.1 35.0 13.5 86.8 E29.72- 84.9 85.1 80.8---
2024-06-19 09:10 pm E 29.1 36.9 13.5-6.8 E29.72- 84.9 85.1 80.8---
2024-06-19 09:00 pm E 27.2 36.9----29.72+0.04 84.7 85.1 81.0---
2024-06-19 08:50 pm E 27.2 33.0 13.5-6.9 E29.71- 83.8 85.3 81.0---
2024-06-19 08:40 pm--- 13.5 106.9 E--------
2024-06-19 08:30 pm E 25.3 33.0----29.71- 82.4 85.1 79.7---
2024-06-19 08:20 pm E 27.2 38.9 12.8 96.8 E29.71- 83.8- 80.4---
2024-06-19 08:10 pmENE 23.3 27.2 12.8-6.8 E29.71- 84.6 85.3 81.0---
2024-06-19 08:00 pmENE 25.3 33.0----29.70+0.01 84.7 85.3 80.6---
2024-06-19 07:50 pm E 23.3 31.1 13.8 116.9 E29.70- 84.9 85.3 80.8---
2024-06-19 07:40 pm E 25.3 33.0 13.8-6.9 E29.71- 84.9 85.3 80.2---
2024-06-19 07:30 pm E 27.2 31.1----29.70- 85.1 85.3 80.2---
2024-06-19 07:20 pm E 27.2 35.0 12.8 107.0 E29.70- 85.1- 80.2---
2024-06-19 07:10 pm E 27.2 33.0 12.8-7.0 E29.69- 84.9 85.3 80.2---
2024-06-19 07:00 pm E 25.3 33.0----29.70+0.00 84.9 85.3 80.4---
2024-06-19 06:50 pm E 27.2 33.0 13.1 116.9 E29.69- 84.9- 80.4---
2024-06-19 06:40 pm E 27.2 31.1----29.69- 84.9 85.3 80.4---
2024-06-19 06:30 pmENE 25.3 31.1----29.69- 84.4 85.1 80.8---
2024-06-19 06:20 pmENE 25.3 29.1 12.5-7.0ENE29.68-- 85.1----
2024-06-19 06:10 pmENE 21.4 31.1 12.5-7.0ENE29.68- 83.7 85.1 81.0---
2024-06-19 06:00 pmENE 21.4 25.3----29.69-0.01 83.5 85.1 80.8---
2024-06-19 05:50 pmENE 21.4 25.3 12.5 106.9 E29.69- 82.9 85.1 80.2---
2024-06-19 05:40 pmENE 21.4 25.3----29.70- 82.4 85.1 79.5---
2024-06-19 05:30 pm E 21.4 27.2----29.70- 81.7 85.1 79.2---
2024-06-19 05:20 pm E 25.3 33.0 14.4 107.2 E29.70- 82.0 85.3 79.7---
2024-06-19 05:10 pmENE 23.3 31.1----29.70- 83.8 85.1 80.6---
2024-06-19 05:00 pmENE 23.3 35.0----29.70-0.01 84.7 85.1 80.8---
2024-06-19 04:50 pmENE 23.3 27.2 13.8 107.1 E29.70- 85.1 85.1 80.4---
2024-06-19 04:40 pmENE 23.3 29.1----29.70- 84.9 85.1 80.2---
2024-06-19 04:30 pmENE 23.3 29.1----29.69- 84.9 85.1 80.4---
2024-06-19 04:20 pmENE 21.4 27.2 13.5 117.2ENE29.69- 84.9- 80.8---
2024-06-19 04:10 pmENE 23.3 31.1 13.5-7.2ENE29.69- 84.7 85.1 80.4---
2024-06-19 04:00 pmENE 23.3 31.1----29.69-0.03 84.9 84.9 80.6---
2024-06-19 03:50 pmENE 21.4 27.2 13.5 107.2ENE29.70- 84.9 84.9 80.2---
2024-06-19 03:40 pmENE 21.4 27.2 13.5-7.2ENE29.70- 84.9 84.9 80.4---
2024-06-19 03:30 pm E 23.3 29.1----29.70- 85.1 84.9 80.2---
2024-06-19 03:20 pmENE 23.3 29.1 12.5 107.1 E29.70- 84.9 84.9 80.2---
2024-06-19 03:10 pm E 23.3 29.1 12.5-7.1 E29.70- 84.9 84.9 80.6---
2024-06-19 03:00 pm E 23.3 29.1----29.70-0.01 84.9 84.9 80.6---
2024-06-19 02:50 pm E 23.3 31.1 11.8 106.9ENE29.70- 84.7 84.7 80.6---
2024-06-19 02:40 pmENE 23.3 29.1 11.8-6.9ENE29.70- 84.6 84.7 80.8---
2024-06-19 02:30 pmENE 23.3 29.1----29.70- 84.6 84.7 80.6---
2024-06-19 02:20 pm E 21.4 27.2 12.5 117.3 E29.70- 84.0 84.7 80.8---
2024-06-19 02:10 pmENE 23.3 27.2 12.5-7.3 E29.70- 83.7 84.6 80.4---
2024-06-19 02:00 pmENE 23.3 27.2----29.70-0.01 82.4 84.6 79.9---
2024-06-19 01:50 pmENE 21.4 29.1 12.1 107.0 E29.71- 83.1- 80.2---
2024-06-19 01:40 pmENE 19.4 25.3 12.1-7.0 E29.71- 83.5 84.7 80.4---
2024-06-19 01:30 pmENE 21.4 25.3----29.71- 83.8 84.9 80.6---
2024-06-19 01:20 pm NE 17.5 21.4 11.5-7.0 E29.72-- 84.9----
2024-06-19 01:10 pm NE 19.4 23.3 11.5-7.0 E29.72- 82.9 84.9 80.4---
2024-06-19 01:00 pmENE 19.4 25.3----29.72+0.01 82.2 84.9 79.7---
2024-06-19 12:50 pmENE 19.4 27.2 13.5 107.5 E29.72- 81.5- 79.5---
2024-06-19 12:40 pmENE 19.4 23.3----29.72- 80.4 85.1 79.0---
2024-06-19 12:30 pmENE 25.3 33.0----29.72- 80.1 85.1 78.8---
2024-06-19 12:20 pmENE 25.3 36.9 11.2 107.1 E29.72- 80.8 85.3 79.2---
2024-06-19 12:10 pm NE 21.4 33.0 11.2-7.1 E29.72- 83.5 85.3 80.1---
2024-06-19 12:00 pm NE 17.5 21.4----29.72+0.01 84.2 85.3 80.6---
2024-06-19 11:50 amENE 17.5 23.3 12.8 107.6 E29.72- 83.8- 80.2---
2024-06-19 11:40 amENE 17.5 21.4----29.72- 83.3 85.3 80.4---
2024-06-19 11:30 amENE 17.5 21.4----29.72- 82.8 85.3 80.6---
2024-06-19 11:20 amENE 17.5 21.4 12.1-7.3 E29.72-- 85.3----
2024-06-19 11:10 amENE 17.5 23.3 12.1-7.3 E29.72- 82.2 85.3 80.1---
2024-06-19 11:00 amENE 19.4 23.3----29.72+0.03 82.6 85.3 80.1---
2024-06-19 10:50 amENE 19.4 23.3 11.2 107.3 E29.72- 82.4 85.3 79.9---

Detailed Wave Summary
for 42020 as of (10:40 am CDT)
1540 GMT on 06/20/2024:

These wave data are displayed in rounded times.

     

Click on the graph icon in the table below to see a time series plot of the last five days of that observation.

5-day plot - Significant Wave Height Significant Wave Height (WVHT): 15.1 ft
5-day plot - Swell Height Swell Height (SwH): 0.0 ft
5-day plot - Wind Wave Height Wind Wave Height (WWH): 15.1 ft
5-day plot - Wind Wave Period Wind Wave Period (WWP): 10.8 sec
5-day plot - Wind Wave Direction Wind Wave Direction (WWD):ENE
5-day plot - Wave Steepness Wave Steepness (STEEPNESS): AVERAGE
5-day plot - Average Wave Period Average Wave Period (APD): 8.1 sec
Previous observations
TIME
(CDT)
5-day plot - Wave Height
WVHT
ft
5-day plot - Swell Height
SwH
ft
5-day plot - Swell Period
SwP
sec
5-day plot - Swell Direction
SwD
 
5-day plot - Wind Wave Height
WWH
ft
5-day plot - Wind Wave Period
WWP
sec
5-day plot - Wind Wave Direction
WWD
 
5-day plot - Wave Steepness
STEEPNESS
 
5-day plot - Average Wave Period
APD
sec
2024-06-20 10:10 am 14.8 12.5 11.4ENE 7.9 6.7 E AVERAGE 8.1
2024-06-20 09:40 am 13.5 8.9 12.1ENE 9.8 7.7 E AVERAGE 7.4
2024-06-20 09:10 am 15.1 9.5 11.4ENE 11.8 8.3 ENE AVERAGE 7.9
2024-06-20 08:40 am 14.4 10.8 10.8 E 9.8 6.7 E AVERAGE 7.9
2024-06-20 08:10 am 14.4 11.5 11.4ENE 8.9 7.7 E AVERAGE 7.8
2024-06-20 07:40 am 16.1 11.2 11.4 E 11.5 5.6 E AVERAGE 8.2
2024-06-20 07:10 am 15.7 12.1 11.4 E 10.2 5.6 ESE AVERAGE 8.2
2024-06-20 06:40 am 16.7 9.5 11.4ENE 13.8 10.0 E AVERAGE 8.3
2024-06-20 06:10 am 16.7 11.8 10.0 E 11.8 6.2 E STEEP 7.8
2024-06-20 05:40 am 16.4 12.5 10.0 E 10.8 7.1 ENE STEEP 8.0
2024-06-20 05:10 am 16.4 13.5 10.8 E 9.5 5.0 E AVERAGE 8.0
2024-06-20 04:40 am 16.7 13.8 11.4ENE 9.5 5.0 ESE AVERAGE 8.0
2024-06-20 04:10 am 15.1 0.0-- 15.1 10.8 E AVERAGE 7.6
2024-06-20 03:40 am 17.7 0.0-- 17.7 10.8 E STEEP 7.9
2024-06-20 03:10 am 18.7 0.0-- 18.7 10.0 E STEEP 8.0
2024-06-20 02:40 am 16.4 0.0-- 16.4 11.4 E AVERAGE 7.7
2024-06-20 02:10 am 17.7 0.0-- 17.7 10.8 E STEEP 7.7
2024-06-20 01:40 am 16.1 0.0-- 16.1 10.0 E STEEP 7.5
2024-06-20 01:10 am 17.4 8.5 11.4 E 15.1 9.1 E STEEP 7.6
2024-06-20 12:40 am 15.4 9.8 11.4 E 11.8 6.2 ENE AVERAGE 7.3
2024-06-20 12:10 am 15.7 0.0-- 15.7 9.1 E STEEP 7.3
2024-06-19 11:40 pm 15.4 6.6 11.4 E 14.1 9.1 E STEEP 7.1
2024-06-19 10:40 pm 14.1 11.5 8.3 E 8.5 6.7 EVERY_STEEP 7.0
2024-06-19 10:10 pm 14.4 6.2 10.8 E 12.8 7.7 E AVERAGE 6.9
2024-06-19 09:40 pm 13.8 8.9 9.1 E 10.2 5.6 E STEEP 6.8
2024-06-19 09:10 pm 13.5 8.5 11.4 E 10.5 8.3 E STEEP 6.8
2024-06-19 08:40 pm 13.5 9.2 10.0 E 9.5 7.1 E STEEP 6.9
2024-06-19 08:10 pm 12.8 8.9 9.1 E 9.2 7.7 ENE STEEP 6.8
2024-06-19 07:40 pm 13.8 9.5 10.8 E 9.8 8.3 E AVERAGE 6.9
2024-06-19 07:10 pm 12.8 8.5 10.0 E 9.2 8.3 E AVERAGE 7.0
2024-06-19 06:40 pm 13.1 10.2 10.8 E 8.5 7.7 ENE AVERAGE 6.9
2024-06-19 06:10 pm 12.5 8.9 10.0ENE 8.9 8.3 E AVERAGE 7.0
2024-06-19 05:40 pm 12.5 8.5 10.0 E 9.2 8.3 E AVERAGE 6.9
2024-06-19 05:10 pm 14.4 10.5 10.0 E 9.8 6.7 ENE STEEP 7.2
2024-06-19 04:40 pm 13.8 9.8 10.0 E 9.5 7.7 ENE STEEP 7.1
2024-06-19 04:10 pm 13.5 10.5 10.8ENE 8.9 6.7 E AVERAGE 7.2
2024-06-19 03:40 pm 13.5 9.5 10.0ENE 9.2 7.7 E STEEP 7.2
2024-06-19 03:10 pm 12.5 9.2 10.0 E 8.5 7.1 E AVERAGE 7.1
2024-06-19 02:40 pm 11.8 8.9 10.0ENE 7.9 7.7 ENE AVERAGE 6.9
2024-06-19 02:10 pm 12.5 9.8 10.8 E 7.9 7.1 ENE AVERAGE 7.3
2024-06-19 01:40 pm 12.1 8.5 10.0 E 8.5 6.2 NE AVERAGE 7.0
2024-06-19 01:10 pm 11.5 8.5 10.8 E 7.9 7.1 ENE AVERAGE 7.0
2024-06-19 12:40 pm 13.5 10.2 10.0 E 8.5 6.2 ENE STEEP 7.5
2024-06-19 12:10 pm 11.2 8.2 10.0 E 7.5 7.1 E AVERAGE 7.1
2024-06-19 11:40 am 12.8 10.2 10.0 E 7.5 5.9 ENE AVERAGE 7.6
2024-06-19 11:10 am 12.1 9.2 9.1 E 7.9 6.2 ENE STEEP 7.3

Plot of wave energy versus frequency (and period)